Location: Chuathbaluk
(61.5726°N, 159.2454°W)
Time: 14:18:51
(UTC+00:00)

DELFI C3 - Pass Details

Date: 17 January 2021
Orbit: 531 x 550 km, 97.4° (Epoch: 04 March)

Event Time Altitude Azimuth Distance (km) Brightness Sun altitude
Exits shadow 03:23:42 11° 48° (NE) 1,771 ? -8.8°
Maximum altitude 03:24:15 11° 40° (NE) 1,755 ? -8.8°
Drops below altitude 10° 03:25:29 10° 22° (NNE) 1,840 ? -9.0°
Sets 03:29:03 0° 348° (NNW) 2,742 ? -9.3°
